Temperature
19 20 19 18 18 17 16 16 16 16 15 15 15 15 15 15 15 15 15 14 14 14 14 14 14 14 14 14 14 14 14 14 14 14 14 13 13 13 13 13 13 13 13
20 20 19 18 17 17 16 16 15 15 15 15 15 15 15 14 14 14 14 14 14 13 13 13 13 14 14 14 14 14 14 14 13 13 13 13 13 13 13 13 13 13 13
20 20 19 18 17 16 16 15 15 15 15 15 15 15 14 14 14 14 14 13 13 13 13 13 13 14 14 14 14 14 14 13 13 12 12 12 13 13 13 13 13 12 12
19 19 18 18 17 16 16 15 15 15 15 15 14 14 14 14 14 13 13 13 13 13 13 13 13 13 14 14 14 14 13 13 12 12 12 12 12 12 12 12 12 12 12
18 18 18 18 17 16 16 15 15 15 14 14 14 14 14 13 13 13 13 13 13 13 13 13 13 13 14 14 14 13 13 13 12 12 12 12 12 12 12 12 12 12 12
18 18 18 17 17 16 15 15 15 15 14 14 14 14 13 13 13 13 13 13 12 12 12 13 13 13 13 13 13 13 13 12 12 12 12 12 12 12 12 12 12 12 12
18 17 17 17 16 16 15 15 15 15 14 14 14 14 13 13 13 13 12 12 12 12 12 12 13 13 13 13 13 13 13 12 12 12 12 12 12 12 12 12 12 12 12
18 17 17 17 16 16 15 15 15 14 14 14 14 13 13 12 12 12 12 12 12 12 12 12 12 13 13 13 13 13 12 12 11 11 11 12 12 12 12 12 11 12 12
17 17 17 16 16 16 15 15 14 14 14 14 14 13 13 13 12 12 12 12 12 12 12 12 12 12 13 13 13 13 12 12 11 11 11 11 11 11 11 12 11 11 11
17 17 17 16 16 15 15 15 14 14 14 14 13 13 13 13 12 12 12 12 12 12 12 12 12 12 13 13 13 12 12 11 11 11 11 11 11 11 11 11 11 11 11
17 17 16 16 16 15 15 15 14 14 14 13 13 13 13 13 12 12 12 12 12 12 12 12 12 12 12 12 12 12 12 11 11 11 11 11 11 11 11 11 11 11 11
17 17 16 16 15 15 15 14 14 14 14 14 13 13 13 12 12 12 11 11 11 12 12 12 12 12 12 12 12 12 12 11 11 11 11 11 11 11 11 11 11 11 11
18 17 16 16 15 15 15 14 14 14 14 13 13 13 12 12 12 11 11 11 11 12 12 12 12 12 12 12 12 12 11 11 11 11 11 11 11 11 11 11 11 11 11
18 17 17 16 15 15 15 14 14 14 14 13 13 13 12 12 11 11 11 12 12 12 12 12 12 12 11 11 11 11 11 11 10 10 11 11 11 11 11 11 11 11 11
18 18 17 16 16 15 15 14 14 14 14 13 13 13 12 12 12 12 11 11 11 11 12 11 11 11 11 11 11 11 11 11 10 10 11 11 11 11 11 11 11 11 11
18 18 17 17 16 16 15 15 14 14 14 13 13 13 13 12 12 12 12 11 11 11 11 11 11 11 11 11 10 11 10 10 10 10 10 11 11 11 11 11 11 10 10
18 18 17 17 16 16 15 15 15 14 14 14 14 13 13 13 12 12 12 12 11 11 11 11 11 10 10 10 10 10 10 10 10 10 10 10 11 11 11 11 11 11 10
18 18 17 17 16 16 15 15 15 14 14 14 14 14 13 13 13 12 12 12 12 11 11 11 11 10 10 10 10 10 10 10 10 10 10 10 10 11 11 11 11 11 11
18 18 17 17 16 16 15 15 14 14 14 14 14 13 13 13 13 12 12 12 12 11 11 11 11 11 10 10 10 10 10 10 10 10 10 10 10 10 11 11 11 11 11
18 18 17 17 16 16 15 14 14 14 14 14 13 14 14 13 13 13 12 12 12 11 11 11 11 10 10 10 10 10 10 10 10 10 10 10 10 10 10 11 11 11 11
18 18 17 17 16 16 15 14 14 14 14 14 14 14 14 13 13 13 12 12 12 11 11 11 11 11 10 10 10 10 10 10 10 10 10 10 10 10 10 10 11 11 11
18 18 17 17 16 16 15 15 15 15 14 14 14 13 13 13 13 13 13 12 12 12 11 11 11 11 10 10 10 9 9 10 10 11 11 11 10 10 10 10 11 11 10
18 18 17 17 17 16 16 15 14 14 13 13 13 13 13 13 13 13 13 13 12 12 12 12 11 11 11 10 10 10 10 10 10 11 11 11 11 10 10 11 11 10 10
17 17 17 17 17 16 15 15 14 14 13 14 14 14 14 14 13 13 13 13 13 12 12 12 12 11 11 10 10 10 10 11 11 10 11 11 11 10 10 10 10 10 10
17 17 17 17 17 16 15 15 14 14 14 14 14 13 13 13 13 13 13 13 12 12 12 12 12 11 11 11 11 10 10 10 10 10 10 10 10 10 10 10 10 10 10
17 17 17 16 16 16 15 15 14 14 14 13 13 13 13 13 13 13 13 13 13 12 12 12 12 11 11 11 11 10 11 10 10 10 10 10 10 10 10 10 10 10 10
Wind_Speed
10 15 21 20 18 17 16 15 15 15 14 13 13 12 12 13 12 12 12 12 13 12 12 13 13 13 13 14 14 14 14 14 14 14 14 15 15 15 15 14 15 14 16
13 18 22 20 19 18 16 16 15 15 14 13 13 12 12 12 12 12 12 12 12 12 11 12 12 12 12 13 13 13 13 12 12 12 13 13 14 15 15 15 15 14 16
15 18 20 20 20 18 17 16 15 15 14 14 13 12 12 12 12 12 11 11 11 11 11 12 11 11 11 12 12 12 11 10 9 9 10 11 13 14 14 14 15 15 15
15 17 18 20 20 18 17 16 16 15 14 14 13 13 12 12 12 12 11 11 11 11 11 11 11 11 11 11 11 10 9 8 6 6 9 12 12 13 13 13 13 14 14
13 16 18 21 20 19 18 17 16 15 14 14 13 13 12 12 12 12 11 11 11 11 12 12 11 11 11 11 10 9 8 6 5 7 10 13 12 12 12 12 12 12 12
12 15 19 21 20 19 18 17 16 15 14 14 13 13 12 12 12 12 11 11 11 11 11 11 11 11 10 10 9 8 5 4 4 7 10 12 11 10 10 10 10 11 11
11 14 19 21 20 19 18 17 16 16 15 14 14 13 13 12 12 12 12 11 11 11 10 10 10 10 9 8 8 6 3 3 4 7 10 11 10 9 9 9 9 9 10
11 13 18 20 20 20 19 18 17 16 15 15 14 14 13 13 13 12 12 12 11 10 10 10 9 9 8 7 6 4 2 2 3 7 10 10 8 8 7 7 8 8 9
10 12 14 16 17 19 18 18 17 16 16 15 15 14 14 14 13 13 12 12 11 11 10 10 9 8 8 7 5 3 1 2 1 4 8 9 8 7 6 6 6 7 7
9 11 13 14 15 15 16 17 17 16 16 15 15 14 14 14 13 13 12 12 12 11 10 10 9 8 8 7 5 4 3 4 2 5 8 8 7 6 5 5 5 5 5
8 10 12 13 13 14 15 17 17 16 16 15 14 15 14 12 12 12 13 13 13 12 11 10 10 9 8 7 6 6 5 6 4 6 8 8 7 5 5 4 4 3 3
10 10 11 13 13 12 13 14 14 14 14 14 13 15 14 13 13 13 15 16 14 12 11 11 10 10 8 8 8 8 8 8 5 7 9 9 7 5 5 4 4 3 3
10 10 11 12 12 11 8 11 10 11 12 14 15 16 15 12 11 11 11 12 12 12 10 10 10 9 10 9 9 9 9 6 5 7 10 10 7 6 5 5 4 4 3
10 11 11 12 11 11 9 9 9 8 8 9 13 16 12 7 7 8 7 10 10 10 9 9 8 10 10 10 10 8 7 5 5 7 10 11 9 7 7 7 6 6 5
10 12 11 11 12 11 10 9 9 8 8 10 11 15 13 7 7 7 7 9 10 11 9 7 7 7 7 7 8 7 6 6 6 8 10 12 10 9 8 8 8 8 7
10 11 12 12 12 11 10 10 9 8 9 10 10 13 15 11 8 7 7 7 8 10 10 8 7 6 6 5 6 6 6 7 7 8 11 12 12 11 10 10 10 9 9
9 10 11 13 12 12 11 10 8 8 9 8 9 13 15 13 11 8 8 7 7 10 10 8 7 5 5 5 5 6 5 6 6 7 10 12 12 13 13 12 11 11 10
8 9 11 11 13 13 11 10 8 7 8 8 10 12 14 15 13 9 8 8 9 9 7 6 6 5 5 5 4 5 4 4 5 7 8 10 12 12 14 14 13 13 12
9 9 10 11 13 12 11 10 9 8 8 7 9 10 12 15 15 11 8 8 10 7 7 7 6 6 5 5 5 5 5 5 5 6 6 8 11 12 13 14 15 14 14
8 8 9 10 11 11 9 8 7 8 8 7 8 9 12 14 15 12 9 10 10 8 7 7 7 6 5 6 5 5 5 5 5 6 7 7 9 12 13 13 13 14 16
7 8 10 10 11 10 9 10 10 10 9 9 9 10 12 14 15 12 10 10 10 9 9 9 7 8 7 5 4 3 4 6 7 7 6 6 7 10 12 13 13 13 13
7 8 9 10 11 11 10 10 9 9 9 9 8 9 12 14 15 13 13 11 11 9 11 11 8 7 6 7 5 4 3 5 7 9 7 8 8 7 8 12 12 13 12
6 8 9 10 11 12 11 7 6 6 6 7 9 10 12 13 14 14 15 12 12 12 11 12 11 11 9 8 7 6 5 6 4 5 8 8 8 7 7 8 11 13 13
7 7 8 9 10 11 11 10 11 10 11 12 11 11 11 14 14 15 15 15 13 12 12 13 13 9 9 8 7 8 6 4 3 3 3 6 8 8 8 7 8 11 13
6 6 6 7 9 11 12 13 13 12 11 9 9 11 12 12 14 15 15 15 15 13 13 13 13 12 11 9 8 7 8 6 5 4 4 4 5 7 7 8 7 8 11
5 5 6 7 8 10 12 13 14 14 13 11 12 12 12 11 12 15 15 15 15 14 14 14 14 14 13 12 10 8 7 6 6 6 7 5 5 5 6 6 7 7 9
Wind_Direction
135 147 158 157 156 155 152 150 147 141 137 133 129 125 122 119 116 113 111 109 108 107 105 103 100 97 95 91 89 88 87 87 87 86 83 80 79 77 75 72 71 71 71
139 147 158 158 158 157 156 152 149 145 142 137 134 132 129 125 121 119 117 114 112 112 111 109 106 101 100 97 95 92 91 90 90 91 87 82 81 79 75 72 72 74 71
137 146 158 160 160 160 158 154 151 149 146 142 140 139 136 132 128 124 122 120 116 116 114 113 109 105 104 102 100 97 95 93 90 90 89 87 83 81 78 75 73 73 71
138 146 158 160 162 162 160 158 156 152 150 148 146 143 140 138 135 131 127 124 119 115 113 113 112 109 106 104 103 100 96 90 80 79 82 83 81 82 81 78 76 75 74
139 149 156 160 164 164 163 161 159 157 155 153 152 148 145 144 142 138 132 129 124 119 116 114 114 112 108 106 104 103 96 81 66 72 82 84 80 83 82 81 78 76 75
143 146 153 162 164 165 166 165 164 163 163 161 159 156 153 149 148 145 139 134 131 127 124 121 120 116 112 111 110 106 92 56 65 74 85 88 84 85 84 84 83 80 77
149 144 155 164 167 168 169 170 169 168 168 168 164 161 159 156 152 150 146 142 139 136 133 130 127 123 120 118 117 109 74 33 80 87 88 88 90 91 88 87 88 85 81
148 144 155 165 168 170 172 173 173 173 173 173 170 168 166 162 159 157 153 150 149 147 145 139 135 132 131 130 127 116 49 14 78 98 98 99 100 100 96 94 93 89 85
150 145 152 166 169 172 174 176 175 175 176 177 176 174 171 168 167 164 161 159 158 157 154 150 147 143 142 142 145 152 253 323 28 116 112 109 112 112 108 104 99 94 89
153 153 157 167 171 174 175 177 176 177 178 179 179 177 174 172 172 168 167 167 165 163 163 161 160 157 155 158 168 192 235 275 220 130 116 122 127 128 125 119 110 105 98
167 164 164 170 174 175 176 180 177 177 179 179 178 177 172 170 171 173 174 171 171 171 171 171 171 168 167 176 190 210 235 250 194 134 123 136 143 148 146 139 133 128 121
182 178 173 174 175 176 179 171 175 179 179 181 180 176 179 181 181 180 173 173 176 177 178 180 182 182 183 189 202 214 234 232 188 144 141 149 155 168 169 165 164 164 160
187 185 180 179 178 176 172 169 176 180 180 188 186 183 185 184 175 163 158 164 173 177 180 184 188 197 204 196 192 206 227 221 181 150 153 161 172 187 191 193 193 195 198
192 189 185 180 181 179 174 175 177 179 182 188 188 186 184 176 168 163 165 170 176 183 184 183 193 208 210 196 194 206 213 206 180 154 164 172 182 199 210 210 212 215 213
198 190 187 185 183 181 179 181 181 181 182 184 185 187 183 172 174 168 175 177 183 185 183 186 198 202 202 199 201 201 200 205 190 175 173 180 189 203 217 221 222 222 220
203 194 187 189 186 184 185 186 184 182 180 183 181 186 183 178 174 172 177 178 184 184 184 191 198 196 197 194 201 199 200 208 201 187 181 188 196 205 218 224 227 229 227
205 196 190 190 187 187 190 190 187 184 182 184 182 187 186 182 178 173 179 182 184 185 185 191 201 197 194 193 198 206 206 207 204 202 190 189 197 208 217 224 229 231 232
207 202 195 192 191 191 192 192 190 188 186 187 184 186 189 185 181 177 183 185 185 184 182 187 192 191 195 194 200 208 205 206 213 216 205 197 196 201 212 221 226 231 234
209 204 197 192 192 193 193 190 191 191 192 189 187 187 191 190 185 181 185 185 184 181 184 190 192 185 191 198 204 207 206 207 213 219 214 208 203 199 201 212 220 226 231
210 205 199 194 194 192 191 192 193 197 196 194 194 193 191 193 189 185 186 187 184 184 187 188 191 191 191 191 204 212 214 215 213 215 218 214 207 205 203 205 210 221 228
205 203 200 197 197 194 194 196 198 202 201 200 200 198 198 194 190 188 191 190 189 191 190 189 189 193 200 186 184 225 247 232 224 220 215 214 211 207 206 206 206 211 219
208 206 205 201 198 198 199 201 201 200 202 203 202 204 205 198 193 195 193 195 193 191 192 194 192 191 197 185 175 179 237 252 238 224 214 214 214 206 206 208 208 211 211
219 215 216 206 200 201 197 194 196 194 197 203 207 210 211 204 199 196 198 196 196 194 198 199 197 193 199 197 188 180 191 219 228 224 215 210 209 209 209 205 208 212 211
223 219 218 210 201 199 197 195 197 203 207 210 205 208 210 207 206 201 200 200 199 200 200 201 201 200 192 200 204 213 216 190 186 228 238 215 208 210 208 206 206 209 211
215 219 223 218 208 200 198 201 204 212 215 212 206 208 213 211 210 207 204 203 204 204 204 203 203 203 202 202 202 203 224 237 224 203 227 226 221 218 210 206 201 206 208
214 214 224 224 218 208 202 203 207 212 213 212 211 212 213 213 212 211 208 207 207 207 206 207 206 204 206 206 206 202 196 200 209 209 222 222 223 225 212 207 205 205 204
Height
1481 1483 1485 1488 1490 1492 1495 1497 1500 1502 1503 1505 1506 1508 1509 1510 1512 1513 1514 1515 1516 1517 1518 1519 1520 1520 1521 1522 1522 1523 1523 1524 1525 1525 1526 1526 1526 1527 1527 1527 1527 1527 1527
1480 1482 1484 1487 1489 1492 1495 1497 1499 1501 1503 1505 1506 1508 1509 1510 1512 1513 1514 1515 1516 1517 1518 1519 1520 1520 1521 1522 1522 1523 1524 1525 1526 1526 1526 1527 1527 1527 1527 1528 1528 1528 1528
1479 1481 1484 1486 1489 1491 1494 1497 1499 1501 1503 1504 1506 1508 1509 1510 1511 1513 1514 1515 1516 1517 1518 1519 1520 1520 1521 1522 1522 1523 1524 1526 1527 1527 1527 1527 1528 1528 1528 1528 1528 1528 1528
1479 1481 1483 1486 1488 1491 1494 1496 1498 1500 1502 1504 1505 1507 1509 1510 1511 1513 1514 1515 1516 1517 1518 1519 1520 1520 1521 1522 1523 1524 1525 1526 1527 1528 1528 1528 1528 1529 1529 1529 1529 1529 1529
1479 1480 1483 1485 1488 1490 1493 1496 1498 1500 1502 1503 1505 1507 1508 1510 1511 1513 1514 1515 1516 1517 1518 1519 1520 1521 1521 1522 1523 1524 1526 1527 1528 1528 1528 1529 1529 1529 1529 1529 1529 1529 1529
1479 1480 1482 1485 1487 1490 1492 1495 1497 1499 1501 1503 1504 1506 1507 1509 1510 1512 1513 1514 1515 1516 1518 1519 1520 1521 1521 1522 1523 1525 1526 1527 1528 1528 1529 1529 1529 1529 1529 1529 1529 1529 1529
1478 1479 1481 1484 1486 1489 1491 1494 1496 1498 1500 1502 1503 1505 1507 1508 1510 1511 1512 1514 1515 1516 1517 1518 1520 1521 1521 1522 1524 1525 1526 1527 1528 1528 1529 1529 1529 1529 1529 1529 1529 1529 1530
1478 1478 1480 1483 1485 1488 1490 1492 1495 1497 1499 1500 1502 1504 1505 1507 1509 1510 1511 1513 1514 1515 1517 1518 1519 1520 1521 1522 1523 1525 1526 1527 1528 1528 1528 1528 1529 1529 1529 1529 1529 1529 1530
1477 1478 1478 1481 1484 1486 1489 1491 1493 1495 1497 1499 1501 1502 1504 1506 1507 1509 1510 1512 1513 1515 1516 1517 1518 1519 1521 1522 1523 1524 1526 1527 1527 1528 1528 1528 1529 1529 1529 1529 1529 1529 1529
1476 1476 1477 1479 1481 1484 1486 1489 1491 1493 1495 1497 1499 1501 1502 1504 1506 1507 1509 1510 1512 1513 1515 1516 1517 1519 1520 1521 1522 1524 1525 1526 1527 1527 1527 1527 1528 1528 1528 1529 1529 1529 1529
1474 1475 1476 1477 1479 1481 1484 1486 1489 1491 1493 1495 1496 1498 1500 1502 1504 1506 1507 1509 1510 1512 1513 1515 1516 1517 1519 1520 1521 1523 1524 1525 1526 1526 1526 1527 1527 1528 1528 1528 1528 1528 1528
1471 1472 1474 1475 1477 1479 1481 1483 1485 1488 1490 1492 1494 1496 1498 1499 1501 1503 1505 1507 1509 1510 1512 1513 1515 1516 1517 1519 1520 1521 1523 1524 1525 1525 1525 1526 1526 1527 1527 1527 1527 1527 1527
1468 1469 1471 1472 1474 1476 1478 1480 1482 1484 1486 1488 1491 1493 1495 1497 1499 1501 1503 1505 1506 1508 1509 1511 1513 1514 1515 1517 1518 1520 1521 1523 1523 1524 1524 1524 1525 1525 1525 1526 1526 1526 1526
1464 1465 1467 1469 1471 1473 1475 1476 1478 1480 1482 1485 1487 1490 1492 1494 1496 1498 1500 1502 1503 1505 1507 1509 1510 1512 1514 1515 1517 1518 1519 1521 1521 1522 1522 1523 1523 1523 1524 1524 1524 1525 1525
1461 1462 1463 1465 1467 1469 1471 1473 1475 1477 1479 1481 1484 1486 1489 1491 1493 1495 1497 1499 1501 1502 1504 1506 1508 1510 1512 1514 1515 1516 1517 1518 1519 1520 1520 1520 1521 1521 1522 1522 1522 1523 1523
1456 1457 1458 1460 1463 1465 1467 1469 1471 1473 1476 1478 1480 1482 1485 1487 1489 1491 1493 1496 1498 1500 1501 1503 1505 1508 1509 1511 1513 1514 1515 1516 1517 1517 1517 1518 1518 1519 1519 1520 1520 1520 1521
1452 1453 1454 1455 1458 1460 1462 1465 1467 1469 1472 1474 1476 1478 1480 1482 1485 1487 1490 1492 1494 1497 1499 1501 1503 1505 1507 1508 1510 1511 1512 1513 1514 1514 1515 1515 1515 1516 1516 1517 1517 1518 1518
1447 1448 1450 1451 1453 1455 1457 1460 1463 1465 1467 1469 1471 1473 1476 1478 1481 1483 1486 1488 1490 1493 1495 1497 1499 1502 1503 1505 1506 1507 1509 1510 1510 1511 1512 1512 1512 1512 1513 1514 1514 1514 1515
1441 1443 1444 1446 1448 1450 1452 1455 1458 1460 1462 1464 1466 1468 1471 1473 1476 1478 1481 1484 1486 1488 1491 1493 1495 1497 1499 1501 1502 1504 1505 1506 1506 1507 1508 1508 1508 1509 1509 1510 1510 1511 1511
1436 1437 1439 1441 1443 1445 1448 1450 1453 1455 1457 1459 1461 1463 1465 1468 1470 1473 1476 1479 1482 1484 1486 1488 1491 1493 1495 1497 1499 1500 1501 1502 1502 1503 1503 1504 1504 1504 1505 1505 1506 1507 1507
1431 1432 1434 1435 1437 1439 1441 1444 1446 1448 1450 1453 1455 1457 1460 1462 1465 1468 1470 1473 1476 1478 1480 1483 1486 1488 1490 1493 1495 1496 1497 1497 1497 1497 1498 1499 1499 1500 1500 1501 1501 1502 1502
1425 1426 1428 1429 1431 1432 1434 1436 1439 1442 1444 1447 1449 1452 1454 1456 1459 1461 1464 1467 1469 1472 1475 1477 1480 1482 1485 1487 1489 1491 1492 1492 1490 1492 1492 1493 1494 1495 1495 1496 1496 1497 1497
1420 1421 1422 1423 1424 1426 1428 1431 1435 1438 1440 1442 1443 1445 1447 1450 1452 1454 1458 1461 1463 1466 1468 1470 1473 1476 1478 1481 1483 1485 1485 1484 1485 1486 1486 1487 1488 1489 1490 1490 1491 1492 1492
1414 1415 1416 1417 1418 1420 1422 1424 1426 1428 1429 1431 1434 1437 1440 1443 1446 1448 1451 1453 1456 1459 1461 1463 1466 1469 1471 1473 1476 1477 1479 1480 1481 1480 1481 1481 1482 1483 1484 1485 1486 1486 1487
1409 1410 1411 1412 1413 1414 1416 1417 1419 1421 1423 1426 1429 1431 1433 1436 1439 1441 1443 1446 1449 1451 1454 1456 1459 1461 1463 1465 1467 1470 1472 1474 1475 1476 1475 1476 1476 1477 1478 1479 1480 1481 1481
1404 1405 1406 1407 1408 1409 1410 1411 1413 1414 1417 1419 1421 1423 1425 1428 1431 1433 1436 1438 1441 1443 1446 1448 1451 1453 1456 1458 1460 1462 1464 1466 1467 1468 1469 1469 1470 1471 1472 1473 1474 1475 1475